Regional Weather Roundup
Issued by NWS New Orleans/Baton Rouge, LA

Home | Current Version | Previous Version | Graphics & Text | Print | Product List | Glossary On
Versions: 1 2 3 4 5 6 7 8 9 10 11 12 13 14 15 16 17 18 19 20 21 22 23 24 25 26 27 28 29 30 31 32 33 34 35 36 37 38 39 40 41 42 43 44 45 46 47 48 49 50
037
ASUS44 KLIX 230410
RWRLIX
NEW ORLEANS REGIONAL WEATHER ROUNDUP
NATIONAL WEATHER SERVICE NEW ORLEANS LA
1100 PM CDT FRI AUG 22 2014

NOTE: "FAIR" INDICATES FEW OR NO CLOUDS BELOW 12,000 FEET WITH NO
      SIGNIFICANT WEATHER AND/OR OBSTRUCTIONS TO VISIBILITY.
      SKY/WX - SKY CONDITION AND SIGNIFICANT WEATHER.
      TMP - AIR TEMPERATURE.     DP    - DEWPOINT TEMPERATURE.
      RH  - RELATIVE HUMIDITY.   PRES  - PRESSURE.
      HI  - HEAT INDEX.          WCI   - WIND CHILL INDEX.

*  THESE STATIONS ARE NOT NWS OR FAA STATIONS AND ARE NOT UNDER
   NWS QUALITY CONTROL.

LAZ038-040-048-061>063-065>067-069-230500-
SOUTHEAST LOUISIANA

CITY           SKY/WX    TMP DP  RH WIND       PRES   REMARKS
N.O. AUDUBON   NOT AVBL
N.O. INTL ARPT CLEAR     83  72  69 SW7       30.03S
N.O. LAKEFRONT CLEAR     87  72  60 SW7       30.03S
N.O. DOWNTOWN*   N/A     88  70  55 SW3       30.04S
SLIDELL        CLEAR     80  75  84 CALM      30.02S
BATON ROUGE    CLEAR     80  76  87 CALM      30.03S
BOOTHVILLE     CLEAR     84  76  76 S6        30.04S
BELLE CHASSE   PTCLDY    81  74  79 SW3       30.03S
BOGALUSA*        N/A     81  75  83 CALM      30.04S
GALLIANO*      NOT AVBL
NEW ROADS*       N/A     78  76  95 CALM      30.03S
GONZALES*        N/A     79  79 100 CALM      30.03S
HAMMOND*       CLEAR     81  75  83 CALM      30.05S
HOUMA*         CLEAR     81  75  82 CALM      30.04S
PORT FOURCHON* CLEAR     86  75  70 SW5       30.05F HX  95

$$

MSZ070-080>082-230500-
SOUTHERN MISSISSIPPI

CITY           SKY/WX    TMP DP  RH WIND       PRES   REMARKS
MCCOMB         CLEAR     78  74  87 CALM      30.04S
GULFPORT       CLEAR     82  75  79 CALM      30.02S
BILOXI         CLEAR     85  76  74 W5        30.02S
PASCAGOULA     CLEAR     77  76  96 CALM      30.02S FOG

$$

COASTAL OBSERVATIONS
LAKE AND NEARSHORE STATIONS

STATION/POSITION TIME  TEMP    WIND        PRES    WAVE
                       AIR SEA DIR/SP/G            HT/PER
                 (UTC) (F)     (DEG/KT/KT) (MB)    (FT/S)
PASCAGOULA       0400   87     250/  7/ 10 1016.1
WAVELAND YACHT   0400   85     240/  4/  4 1016.2
GRAND ISLE       0400   87 90  220/  3/  5 1017.8
SOUTHWEST PASS   0400   86 88  190/  4/  5 1017.8
NEW CANAL        0400   87 87  230/  4/  5 1017.3
SHELL BEACH      0400   85 83  190/  7/  8 1016.9

OFFSHORE STATIONS

STATION/POSITION TIME  TEMP    WIND        PRES    WAVE
                       AIR SEA DIR/SP/G            HT/PER
                 (UTC) (F)     (DEG/KT/KT) (MB)    (FT/S)

$$




USA.gov is the U.S. government's official web portal to all federal, state and local government web resources and services.